Terminal Aerodrome Forecast
Issued by NWS Wilmington, OH

Current Version | Previous Version | Text Only | Print | Product List | Glossary On
Versions: 1 2 3 4 5 6 7 8 9 10 11 12 13 14 15 16
000
FTUS41 KILN 071200 AAA
TAFILN
TAF AMD
KILN 071242Z 0713/0812 20006KT 5SM BR BKN008 BKN013 OVC070
      TEMPO 0713/0716 SCT008 BKN015
     FM071600 22012KT P6SM SCT018 BKN035
     FM071700 22012G20KT P6SM VCTS BKN035CB
      TEMPO 0720/0724 5SM -TSRA BR OVC025CB
     FM080000 23011KT 5SM -SHRA BR VCTS OVC025CB
     FM080900 29010KT 5SM -SHRA BR OVC016=

USA.gov is the U.S. government's official web portal to all federal, state and local government web resources and services.